Location: Bijele Vode
(45.2833°N, 16.2000°E)
Time: 00:53:52
(UTC+00:00)

Cosmos 1464 Rocket - Pass Details

Date: 18 September 2020
Orbit: 953 x 1000 km, 82.9° (Epoch: 26 October)

Event Time Altitude Azimuth Distance (km) Brightness Sun altitude
Rises 17:56:44 0° 170° (S) 3,615 6.7 -10.7°
Reaches altitude 10° 17:59:16 10° 165° (SSE) 2,674 6.0 -11.2°
Maximum altitude 18:05:08 51° 91° (E) 1,188 4.1 -12.2°
Drops below altitude 10° 18:11:05 10° 18° (NNE) 2,705 6.3 -13.2°
Sets 18:13:39 0° 13° (NNE) 3,662 7.1 -13.6°
